Arhiva mjerenja
Tablični prikaz
| stationDateMetric | stationTimeNoSecs | timestamp | outsideTemp | outsideHumidity | barometer | windGustSpeed_ms | windGustSpeed | windDirectionDegrees | windDirection | windChill | windSpeed | rainRate | dailyRainMM | totalRain | solarRad | UV | ET | outsideHeatIndex | outsideDewPt |
|---|---|---|---|---|---|---|---|---|---|---|---|---|---|---|---|---|---|---|---|
| 2026-09-01 | 07:10:00 | 2026-09-01 07:11:01 | 18.7 | 83.0 | 1019.1 | 0.0 | 0.0 | 9.0 | N | 18.7 | 0.0 | 0.0 | 0.0 | 40.8 | 16.0 | 0.0 | 0.3 | 18.7 | 15.8 |
| 2026-09-01 | 07:05:00 | 2026-09-01 07:06:01 | 18.7 | 83.0 | 1019.1 | 0.0 | 0.0 | 9.0 | N | 18.7 | 0.0 | 0.0 | 0.0 | 40.8 | 11.0 | 0.0 | 0.3 | 18.7 | 15.8 |
| 2026-09-01 | 07:00:00 | 2026-09-01 07:01:02 | 18.7 | 83.0 | 1019.0 | 0.0 | 0.0 | 9.0 | N | 18.7 | 0.0 | 0.0 | 0.0 | 40.8 | 11.0 | 0.0 | 0.3 | 18.7 | 15.8 |
| 2026-09-01 | 06:55:00 | 2026-09-01 06:56:02 | 18.8 | 83.0 | 1018.9 | 0.0 | 0.0 | 9.0 | N | 18.8 | 0.0 | 0.0 | 0.0 | 40.8 | 12.0 | 0.0 | 0.3 | 18.8 | 15.8 |
| 2026-09-01 | 06:50:00 | 2026-09-01 06:51:01 | 18.8 | 83.0 | 1018.9 | 0.0 | 0.0 | 9.0 | N | 18.8 | 0.0 | 0.0 | 0.0 | 40.8 | 11.0 | 0.0 | 0.3 | 18.8 | 15.9 |
| 2026-09-01 | 06:45:00 | 2026-09-01 06:46:01 | 18.8 | 83.0 | 1018.9 | 0.0 | 0.0 | 9.0 | N | 18.8 | 0.0 | 0.0 | 0.0 | 40.8 | 7.0 | 0.0 | 0.3 | 18.8 | 15.9 |
| 2026-09-01 | 06:40:00 | 2026-09-01 06:41:01 | 18.9 | 82.0 | 1018.9 | 0.4 | 0.0 | 9.0 | N | 18.9 | 1.6 | 0.0 | 0.0 | 40.8 | 0.0 | 0.0 | 0.3 | 18.9 | 15.7 |
| 2026-09-01 | 06:35:00 | 2026-09-01 06:36:01 | 18.9 | 81.0 | 1018.9 | 0.0 | 0.0 | 9.0 | N | 18.9 | 0.0 | 0.0 | 0.0 | 40.8 | 0.0 | 0.0 | 0.3 | 18.9 | 15.6 |
| 2026-09-01 | 06:30:00 | 2026-09-01 06:31:01 | 18.9 | 81.0 | 1018.8 | 0.0 | 0.0 | 9.0 | N | 18.9 | 0.0 | 0.0 | 0.0 | 40.8 | 0.0 | 0.0 | 0.3 | 18.9 | 15.6 |
| 2026-09-01 | 06:25:00 | 2026-09-01 06:26:01 | 18.8 | 81.0 | 1018.8 | 0.0 | 0.0 | 9.0 | N | 18.8 | 0.0 | 0.0 | 0.0 | 40.8 | 0.0 | 0.0 | 0.3 | 18.8 | 15.5 |
| 2026-09-01 | 06:20:00 | 2026-09-01 06:21:01 | 18.8 | 81.0 | 1018.7 | 0.0 | 0.0 | 9.0 | N | 18.8 | 0.0 | 0.0 | 0.0 | 40.8 | 0.0 | 0.0 | 0.3 | 18.8 | 15.5 |
| 2026-09-01 | 06:15:00 | 2026-09-01 06:16:01 | 18.8 | 82.0 | 1018.6 | 0.0 | 0.0 | 9.0 | N | 18.8 | 0.0 | 0.0 | 0.0 | 40.8 | 0.0 | 0.0 | 0.3 | 18.8 | 15.7 |
| 2026-09-01 | 06:10:00 | 2026-09-01 06:11:01 | 18.8 | 82.0 | 1018.6 | 0.0 | 0.0 | 9.0 | N | 18.8 | 0.0 | 0.0 | 0.0 | 40.8 | 0.0 | 0.0 | 0.3 | 18.8 | 15.7 |
| 2026-09-01 | 06:05:00 | 2026-09-01 06:06:01 | 18.9 | 82.0 | 1018.6 | 0.0 | 0.0 | 9.0 | N | 18.9 | 0.0 | 0.0 | 0.0 | 40.8 | 0.0 | 0.0 | 0.3 | 18.9 | 15.7 |
| 2026-09-01 | 06:00:00 | 2026-09-01 06:01:01 | 18.9 | 83.0 | 1018.5 | 0.0 | 0.0 | 9.0 | N | 18.9 | 0.0 | 0.0 | 0.0 | 40.8 | 0.0 | 0.0 | 0.3 | 18.9 | 15.9 |
| 2026-09-01 | 05:55:00 | 2026-09-01 05:56:02 | 18.9 | 82.0 | 1018.4 | 0.0 | 0.0 | 9.0 | N | 18.9 | 0.0 | 0.0 | 0.0 | 40.8 | 0.0 | 0.0 | 0.3 | 18.9 | 15.7 |
| 2026-09-01 | 05:50:00 | 2026-09-01 05:51:01 | 18.9 | 82.0 | 1018.4 | 0.0 | 0.0 | 9.0 | N | 18.9 | 0.0 | 0.0 | 0.0 | 40.8 | 0.0 | 0.0 | 0.3 | 18.9 | 15.8 |
| 2026-09-01 | 05:45:00 | 2026-09-01 05:46:01 | 19.0 | 82.0 | 1018.5 | 0.0 | 0.0 | 9.0 | N | 19.0 | 0.0 | 0.0 | 0.0 | 40.8 | 0.0 | 0.0 | 0.3 | 19.0 | 15.9 |
| 2026-09-01 | 05:40:00 | 2026-09-01 05:41:01 | 19.1 | 82.0 | 1018.5 | 0.0 | 0.0 | 9.0 | N | 19.1 | 0.0 | 0.0 | 0.0 | 40.8 | 0.0 | 0.0 | 0.3 | 19.1 | 15.9 |
| 2026-09-01 | 05:35:00 | 2026-09-01 05:36:01 | 19.1 | 81.0 | 1018.3 | 0.0 | 0.0 | 9.0 | N | 19.1 | 0.0 | 0.0 | 0.0 | 40.8 | 0.0 | 0.0 | 0.3 | 19.1 | 15.7 |
| 2026-09-01 | 05:30:00 | 2026-09-01 05:31:01 | 19.1 | 81.0 | 1018.2 | 0.0 | 0.0 | 9.0 | N | 19.1 | 0.0 | 0.0 | 0.0 | 40.8 | 0.0 | 0.0 | 0.3 | 19.1 | 15.8 |
| 2026-09-01 | 05:25:00 | 2026-09-01 05:26:01 | 19.2 | 80.0 | 1018.3 | 0.0 | 0.0 | 9.0 | N | 19.2 | 0.0 | 0.0 | 0.0 | 40.8 | 0.0 | 0.0 | 0.3 | 19.2 | 15.6 |
| 2026-09-01 | 05:20:00 | 2026-09-01 05:21:02 | 19.2 | 80.0 | 1018.3 | 0.0 | 0.0 | 9.0 | N | 19.2 | 0.0 | 0.0 | 0.0 | 40.8 | 0.0 | 0.0 | 0.3 | 19.2 | 15.7 |
| 2026-09-01 | 05:15:00 | 2026-09-01 05:16:01 | 19.3 | 80.0 | 1018.4 | 0.0 | 0.0 | 9.0 | N | 19.3 | 0.0 | 0.0 | 0.0 | 40.8 | 0.0 | 0.0 | 0.3 | 19.3 | 15.7 |
| 2026-09-01 | 05:10:00 | 2026-09-01 05:11:01 | 19.3 | 79.0 | 1018.3 | 0.0 | 0.0 | 9.0 | N | 19.3 | 0.0 | 0.0 | 0.0 | 40.8 | 0.0 | 0.0 | 0.3 | 19.3 | 15.5 |
| 2026-09-01 | 05:05:00 | 2026-09-01 05:06:01 | 19.3 | 79.0 | 1018.3 | 0.0 | 0.0 | 9.0 | N | 19.3 | 0.0 | 0.0 | 0.0 | 40.8 | 0.0 | 0.0 | 0.3 | 19.3 | 15.5 |
| 2026-09-01 | 05:00:00 | 2026-09-01 05:01:01 | 19.3 | 79.0 | 1018.1 | 0.0 | 0.0 | 9.0 | N | 19.3 | 0.0 | 0.0 | 0.0 | 40.8 | 0.0 | 0.0 | 0.3 | 19.3 | 15.6 |
| 2026-09-01 | 04:55:00 | 2026-09-01 04:56:02 | 19.4 | 79.0 | 1018.1 | 0.0 | 0.0 | 9.0 | N | 19.4 | 0.0 | 0.0 | 0.0 | 40.8 | 0.0 | 0.0 | 0.2 | 19.4 | 15.6 |
| 2026-09-01 | 04:50:00 | 2026-09-01 04:51:01 | 19.5 | 78.0 | 1018.2 | 0.0 | 0.0 | 9.0 | N | 19.5 | 0.0 | 0.0 | 0.0 | 40.8 | 0.0 | 0.0 | 0.2 | 19.5 | 15.6 |
| 2026-09-01 | 04:45:00 | 2026-09-01 04:46:01 | 19.6 | 78.0 | 1018.4 | 0.0 | 0.0 | 9.0 | N | 19.6 | 0.0 | 0.0 | 0.0 | 40.8 | 0.0 | 0.0 | 0.2 | 19.6 | 15.6 |
| 2026-09-01 | 04:40:00 | 2026-09-01 04:41:01 | 19.6 | 77.0 | 1018.3 | 0.0 | 0.0 | 9.0 | N | 19.6 | 0.0 | 0.0 | 0.0 | 40.8 | 0.0 | 0.0 | 0.2 | 19.6 | 15.5 |
| 2026-09-01 | 04:35:00 | 2026-09-01 04:36:01 | 19.7 | 76.0 | 1018.2 | 0.0 | 0.0 | 9.0 | N | 19.7 | 0.0 | 0.0 | 0.0 | 40.8 | 0.0 | 0.0 | 0.2 | 19.7 | 15.3 |
| 2026-09-01 | 04:30:00 | 2026-09-01 04:31:02 | 19.7 | 75.0 | 1018.3 | 0.0 | 0.0 | 9.0 | N | 19.7 | 0.0 | 0.0 | 0.0 | 40.8 | 0.0 | 0.0 | 0.2 | 19.7 | 15.1 |
| 2026-09-01 | 04:25:00 | 2026-09-01 04:26:01 | 19.7 | 76.0 | 1018.3 | 0.0 | 0.0 | 9.0 | N | 19.7 | 0.0 | 0.0 | 0.0 | 40.8 | 0.0 | 0.0 | 0.2 | 19.7 | 15.4 |
| 2026-09-01 | 04:20:00 | 2026-09-01 04:21:01 | 19.7 | 76.0 | 1018.4 | 0.0 | 0.0 | 9.0 | N | 19.7 | 0.0 | 0.0 | 0.0 | 40.8 | 0.0 | 0.0 | 0.2 | 19.7 | 15.4 |
| 2026-09-01 | 04:15:00 | 2026-09-01 04:16:01 | 19.8 | 75.0 | 1018.3 | 0.0 | 0.0 | 9.0 | N | 19.8 | 0.0 | 0.0 | 0.0 | 40.8 | 0.0 | 0.0 | 0.2 | 19.8 | 15.2 |
| 2026-09-01 | 04:10:00 | 2026-09-01 04:11:01 | 19.8 | 75.0 | 1018.2 | 0.0 | 0.0 | 9.0 | N | 19.8 | 0.0 | 0.0 | 0.0 | 40.8 | 0.0 | 0.0 | 0.2 | 19.8 | 15.3 |
| 2026-09-01 | 04:05:00 | 2026-09-01 04:06:01 | 19.8 | 76.0 | 1018.4 | 0.0 | 0.0 | 9.0 | N | 19.8 | 0.0 | 0.0 | 0.0 | 40.8 | 0.0 | 0.0 | 0.2 | 19.8 | 15.5 |
| 2026-09-01 | 04:00:00 | 2026-09-01 04:01:01 | 19.9 | 75.0 | 1018.4 | 0.0 | 0.0 | 9.0 | N | 19.9 | 0.0 | 0.0 | 0.0 | 40.8 | 0.0 | 0.0 | 0.2 | 19.9 | 15.3 |
| 2026-09-01 | 03:55:00 | 2026-09-01 03:56:01 | 19.9 | 75.0 | 1018.1 | 0.0 | 0.0 | 9.0 | N | 19.9 | 0.0 | 0.0 | 0.0 | 40.8 | 0.0 | 0.0 | 0.2 | 19.9 | 15.3 |
| 2026-09-01 | 03:50:00 | 2026-09-01 03:51:01 | 19.9 | 74.0 | 1018.2 | 0.0 | 0.0 | 9.0 | N | 19.9 | 0.0 | 0.0 | 0.0 | 40.8 | 0.0 | 0.0 | 0.2 | 19.9 | 15.2 |
| 2026-09-01 | 03:45:00 | 2026-09-01 03:46:01 | 20.0 | 75.0 | 1018.2 | 0.0 | 0.0 | 9.0 | N | 20.0 | 0.0 | 0.0 | 0.0 | 40.8 | 0.0 | 0.0 | 0.2 | 20.0 | 15.4 |
| 2026-09-01 | 03:40:00 | 2026-09-01 03:41:01 | 20.1 | 74.0 | 1018.2 | 0.0 | 0.0 | 9.0 | N | 20.1 | 0.0 | 0.0 | 0.0 | 40.8 | 0.0 | 0.0 | 0.2 | 20.1 | 15.3 |
| 2026-09-01 | 03:35:00 | 2026-09-01 03:36:01 | 20.1 | 74.0 | 1018.2 | 0.0 | 0.0 | 9.0 | N | 20.1 | 0.0 | 0.0 | 0.0 | 40.8 | 0.0 | 0.0 | 0.2 | 20.1 | 15.3 |
| 2026-09-01 | 03:30:00 | 2026-09-01 03:31:01 | 20.1 | 74.0 | 1018.2 | 0.0 | 0.0 | 9.0 | N | 20.1 | 0.0 | 0.0 | 0.0 | 40.8 | 0.0 | 0.0 | 0.2 | 20.1 | 15.3 |
| 2026-09-01 | 03:25:00 | 2026-09-01 03:26:01 | 20.2 | 74.0 | 1018.3 | 0.0 | 0.0 | 9.0 | N | 20.2 | 0.0 | 0.0 | 0.0 | 40.8 | 0.0 | 0.0 | 0.2 | 20.2 | 15.4 |
| 2026-09-01 | 03:20:00 | 2026-09-01 03:21:01 | 20.3 | 73.0 | 1018.0 | 0.0 | 0.0 | 9.0 | N | 20.3 | 0.0 | 0.0 | 0.0 | 40.8 | 0.0 | 0.0 | 0.2 | 20.3 | 15.3 |
| 2026-09-01 | 03:15:00 | 2026-09-01 03:16:01 | 20.3 | 73.0 | 1018.0 | 0.0 | 0.0 | 9.0 | N | 20.3 | 0.0 | 0.0 | 0.0 | 40.8 | 0.0 | 0.0 | 0.2 | 20.3 | 15.3 |
| 2026-09-01 | 03:10:00 | 2026-09-01 03:11:01 | 20.3 | 72.0 | 1018.0 | 0.0 | 0.0 | 9.0 | N | 20.3 | 0.0 | 0.0 | 0.0 | 40.8 | 0.0 | 0.0 | 0.2 | 20.3 | 15.1 |
| 2026-09-01 | 03:05:00 | 2026-09-01 03:06:01 | 20.4 | 72.0 | 1018.0 | 0.0 | 0.0 | 9.0 | N | 20.4 | 0.0 | 0.0 | 0.0 | 40.8 | 0.0 | 0.0 | 0.2 | 20.4 | 15.2 |
| 2026-09-01 | 03:00:00 | 2026-09-01 03:01:01 | 20.4 | 72.0 | 1017.9 | 0.0 | 0.0 | 9.0 | N | 20.4 | 0.0 | 0.0 | 0.0 | 40.8 | 0.0 | 0.0 | 0.2 | 20.4 | 15.2 |
| 2026-09-01 | 02:55:00 | 2026-09-01 02:56:01 | 20.4 | 71.0 | 1018.0 | 0.0 | 0.0 | 9.0 | N | 20.4 | 0.0 | 0.0 | 0.0 | 40.8 | 0.0 | 0.0 | 0.2 | 20.4 | 14.9 |
| 2026-09-01 | 02:50:00 | 2026-09-01 02:51:01 | 20.4 | 71.0 | 1017.8 | 0.0 | 0.0 | 9.0 | N | 20.4 | 0.0 | 0.0 | 0.0 | 40.8 | 0.0 | 0.0 | 0.2 | 20.4 | 15.0 |
| 2026-09-01 | 02:45:00 | 2026-09-01 02:46:01 | 20.4 | 71.0 | 1017.6 | 0.0 | 0.0 | 9.0 | N | 20.4 | 0.0 | 0.0 | 0.0 | 40.8 | 0.0 | 0.0 | 0.2 | 20.4 | 15.0 |
| 2026-09-01 | 02:40:00 | 2026-09-01 02:41:01 | 20.5 | 71.0 | 1017.6 | 0.0 | 0.0 | 9.0 | N | 20.5 | 0.0 | 0.0 | 0.0 | 40.8 | 0.0 | 0.0 | 0.2 | 20.5 | 15.1 |
| 2026-09-01 | 02:35:00 | 2026-09-01 02:36:01 | 20.6 | 70.0 | 1017.5 | 1.3 | 0.0 | 5.0 | N | 20.6 | 4.8 | 0.0 | 0.0 | 40.8 | 0.0 | 0.0 | 0.2 | 20.6 | 14.9 |
| 2026-09-01 | 02:30:00 | 2026-09-01 02:31:01 | 20.6 | 70.0 | 1017.7 | 0.0 | 0.0 | 5.0 | N | 20.6 | 0.0 | 0.0 | 0.0 | 40.8 | 0.0 | 0.0 | 0.2 | 20.6 | 14.9 |
| 2026-09-01 | 02:25:00 | 2026-09-01 02:26:01 | 20.6 | 70.0 | 1017.7 | 0.0 | 0.0 | 10.0 | N | 20.6 | 0.0 | 0.0 | 0.0 | 40.8 | 0.0 | 0.0 | 0.2 | 20.6 | 14.9 |
| 2026-09-01 | 02:20:00 | 2026-09-01 02:21:01 | 20.6 | 70.0 | 1017.7 | 0.0 | 0.0 | 10.0 | N | 20.6 | 0.0 | 0.0 | 0.0 | 40.8 | 0.0 | 0.0 | 0.2 | 20.6 | 14.9 |
| 2026-09-01 | 02:15:00 | 2026-09-01 02:16:01 | 20.6 | 70.0 | 1017.6 | 0.0 | 0.0 | 10.0 | N | 20.6 | 0.0 | 0.0 | 0.0 | 40.8 | 0.0 | 0.0 | 0.2 | 20.6 | 14.9 |
| 2026-09-01 | 02:10:00 | 2026-09-01 02:11:01 | 20.5 | 69.0 | 1017.4 | 0.4 | 0.0 | 10.0 | N | 20.5 | 1.6 | 0.0 | 0.0 | 40.8 | 0.0 | 0.0 | 0.2 | 20.5 | 14.6 |
| 2026-09-01 | 02:05:00 | 2026-09-01 02:06:01 | 20.5 | 70.0 | 1017.4 | 0.0 | 0.0 | 5.0 | N | 20.5 | 0.0 | 0.0 | 0.0 | 40.8 | 0.0 | 0.0 | 0.2 | 20.5 | 14.8 |
| 2026-09-01 | 02:00:00 | 2026-09-01 02:01:02 | 20.5 | 69.0 | 1017.4 | 0.0 | 0.0 | 5.0 | N | 20.5 | 0.0 | 0.0 | 0.0 | 40.8 | 0.0 | 0.0 | 0.2 | 20.5 | 14.6 |
| 2026-09-01 | 01:55:00 | 2026-09-01 01:56:02 | 20.5 | 69.0 | 1017.3 | 0.0 | 0.0 | 5.0 | N | 20.5 | 0.0 | 0.0 | 0.0 | 40.8 | 0.0 | 0.0 | 0.1 | 20.5 | 14.6 |
| 2026-09-01 | 01:50:00 | 2026-09-01 01:51:02 | 20.5 | 69.0 | 1017.3 | 0.0 | 0.0 | 5.0 | N | 20.5 | 0.0 | 0.0 | 0.0 | 40.8 | 0.0 | 0.0 | 0.1 | 20.5 | 14.6 |
| 2026-09-01 | 01:45:00 | 2026-09-01 01:46:02 | 20.5 | 69.0 | 1017.2 | 0.9 | 0.0 | 10.0 | N | 20.5 | 3.2 | 0.0 | 0.0 | 40.8 | 0.0 | 0.0 | 0.1 | 20.5 | 14.6 |
| 2026-09-01 | 01:40:00 | 2026-09-01 01:41:02 | 20.4 | 69.0 | 1017.2 | 0.0 | 0.0 | 10.0 | N | 20.4 | 0.0 | 0.0 | 0.0 | 40.8 | 0.0 | 0.0 | 0.1 | 20.4 | 14.6 |
| 2026-09-01 | 01:35:00 | 2026-09-01 01:36:02 | 20.4 | 69.0 | 1017.1 | 0.0 | 0.0 | 5.0 | N | 20.4 | 0.0 | 0.0 | 0.0 | 40.8 | 0.0 | 0.0 | 0.1 | 20.4 | 14.6 |
| 2026-09-01 | 01:30:00 | 2026-09-01 01:31:02 | 20.5 | 69.0 | 1017.0 | 1.8 | 0.0 | 5.0 | N | 20.5 | 6.4 | 0.0 | 0.0 | 40.8 | 0.0 | 0.0 | 0.1 | 20.5 | 14.6 |
| 2026-09-01 | 01:25:00 | 2026-09-01 01:26:02 | 20.6 | 69.0 | 1016.8 | 0.0 | 0.0 | 5.0 | N | 20.6 | 0.0 | 0.0 | 0.0 | 40.8 | 0.0 | 0.0 | 0.1 | 20.6 | 14.7 |
| 2026-09-01 | 01:20:00 | 2026-09-01 01:21:02 | 20.6 | 68.0 | 1016.7 | 0.9 | 0.0 | 5.0 | N | 20.6 | 3.2 | 0.0 | 0.0 | 40.8 | 0.0 | 0.0 | 0.1 | 20.6 | 14.5 |
| 2026-09-01 | 01:15:00 | 2026-09-01 01:16:02 | 20.7 | 68.0 | 1016.8 | 1.3 | 0.0 | 5.0 | N | 20.7 | 4.8 | 0.0 | 0.0 | 40.8 | 0.0 | 0.0 | 0.1 | 20.7 | 14.5 |
| 2026-09-01 | 01:10:00 | 2026-09-01 01:11:02 | 20.8 | 67.0 | 1017.0 | 0.9 | 0.0 | 5.0 | N | 20.8 | 3.2 | 0.0 | 0.0 | 40.8 | 0.0 | 0.0 | 0.1 | 20.8 | 14.4 |
| 2026-09-01 | 01:05:00 | 2026-09-01 01:06:02 | 20.8 | 66.0 | 1016.8 | 0.9 | 0.0 | 5.0 | N | 20.8 | 3.2 | 0.0 | 0.0 | 40.8 | 0.0 | 0.0 | 0.1 | 20.8 | 14.2 |
| 2026-09-01 | 01:00:00 | 2026-09-01 01:01:02 | 20.9 | 67.0 | 1016.8 | 2.2 | 0.0 | 5.0 | N | 20.9 | 8.0 | 0.0 | 0.0 | 40.8 | 0.0 | 0.0 | 0.1 | 20.9 | 14.5 |
| 2026-09-01 | 00:55:00 | 2026-09-01 00:56:02 | 21.0 | 66.0 | 1016.9 | 1.3 | 0.0 | 5.0 | N | 21.0 | 4.8 | 0.0 | 0.0 | 40.8 | 0.0 | 0.0 | 0.1 | 21.0 | 14.4 |
| 2026-09-01 | 00:50:00 | 2026-09-01 00:51:02 | 21.1 | 66.0 | 1017.0 | 0.4 | 0.0 | 5.0 | N | 21.1 | 1.6 | 0.0 | 0.0 | 40.8 | 0.0 | 0.0 | 0.1 | 21.1 | 14.5 |
| 2026-09-01 | 00:45:00 | 2026-09-01 00:46:02 | 21.2 | 66.0 | 1017.1 | 0.9 | 0.0 | 5.0 | N | 21.2 | 3.2 | 0.0 | 0.0 | 40.8 | 0.0 | 0.0 | 0.1 | 21.2 | 14.6 |
| 2026-09-01 | 00:40:00 | 2026-09-01 00:41:02 | 21.3 | 66.0 | 1017.1 | 1.3 | 0.0 | 5.0 | N | 21.3 | 4.8 | 0.0 | 0.0 | 40.8 | 0.0 | 0.0 | 0.1 | 21.3 | 14.7 |
| 2026-09-01 | 00:35:00 | 2026-09-01 00:36:02 | 21.4 | 65.0 | 1017.1 | 1.3 | 0.0 | 5.0 | N | 21.4 | 4.8 | 0.0 | 0.0 | 40.8 | 0.0 | 0.0 | 0.1 | 21.4 | 14.5 |
| 2026-09-01 | 00:30:00 | 2026-09-01 00:31:02 | 21.5 | 64.0 | 1016.9 | 1.8 | 0.0 | 5.0 | N | 21.5 | 6.4 | 0.0 | 0.0 | 40.8 | 0.0 | 0.0 | 0.1 | 21.5 | 14.4 |
| 2026-09-01 | 00:25:00 | 2026-09-01 00:26:02 | 21.7 | 64.0 | 1017.0 | 1.8 | 0.0 | 5.0 | N | 21.7 | 6.4 | 0.0 | 0.0 | 40.8 | 0.0 | 0.0 | 0.1 | 21.7 | 14.6 |
| 2026-09-01 | 00:20:00 | 2026-09-01 00:21:03 | 22.0 | 62.0 | 1017.0 | 2.7 | 0.0 | 5.0 | N | 22.0 | 9.7 | 0.0 | 0.0 | 40.8 | 0.0 | 0.0 | 0.1 | 22.0 | 14.4 |
| 2026-09-01 | 00:15:00 | 2026-09-01 00:16:02 | 22.3 | 61.0 | 1016.8 | 1.8 | 0.0 | 5.0 | N | 22.3 | 6.4 | 0.0 | 0.0 | 40.8 | 0.0 | 0.0 | 0.1 | 22.3 | 14.4 |
| 2026-09-01 | 00:10:00 | 2026-09-01 00:11:02 | 22.6 | 60.0 | 1016.9 | 0.9 | 0.0 | 5.0 | N | 22.6 | 3.2 | 0.0 | 0.0 | 40.8 | 0.0 | 0.0 | 0.1 | 22.6 | 14.4 |
| 2026-09-01 | 00:05:00 | 2026-09-01 00:06:02 | 22.9 | 58.0 | 1016.8 | 4.5 | 0.0 | 9.0 | N | 22.9 | 16.1 | 0.0 | 0.0 | 40.8 | 0.0 | 0.0 | 0.1 | 22.9 | 14.2 |
| 2026-09-01 | 00:00:00 | 2026-09-01 00:01:02 | 23.3 | 58.0 | 1016.7 | 4.5 | 16.0 | 5.0 | N | 23.3 | 16.1 | 0.0 | 0.0 | 40.8 | 0.0 | 0.0 | 3.6 | 23.3 | 14.5 |